Blackpool, United Kingdom

9:07 AM BST on July 28, 2017 (GMT +0100)
Blackpool

Weather History for EGNH - February, 2014

Change the Weather History Date:

Tuesday, February 18, 2014

  Actual Average Record
Temperature  
Mean Temperature 45 °F -  
Max Temperature 48 °F 46 °F 51 °F (2017)
Min Temperature 42 °F 37 °F 24 °F (2008)
Degree Days  
Heating Degree Days 20    
Moisture  
Dew Point 43 °F    
Average Humidity 89    
Maximum Humidity 93    
Minimum Humidity 78    
Precipitation  
Precipitation 0.02 in - - ()
Sea Level Pressure  
Sea Level Pressure 29.70 in    
Wind  
Wind Speed 9 mph ()    
Max Wind Speed 13 mph    
Max Gust Speed -    
Visibility 6.2 miles    
Events Rain    
Averages and records for this station are not official NWS values.
T = Trace of Precipitation, MM = Missing Value Source: Averaged Metar Reports

Daily Weather History Graph

Daily Weather History Graph

Search for Another Location

Airport or City:

Trip Planner

Search our weather history database for the weather conditions in past years. The results will help you decide how hot, cold, wet, or windy it might be!

Date:

Astronomy

Feb. 18, 2014 Rise Set
Actual Time 7:25 AM GMT 5:27 PM GMT
Civil Twilight 6:49 AM GMT 6:03 PM GMT
Nautical Twilight 6:08 AM GMT 6:44 PM GMT
Astronomical Twilight 5:27 AM GMT 7:25 PM GMT
Moon 9:46 PM GMT (2/18) 8:15 AM GMT (2/18)
Length of Visible Light 11h 14m
Length of Day
10h 02m
Waning Gibbous, 89% of the Moon is Illuminated
Feb 18
Waning Gibbous
Feb 22
Last Quarter
Mar 1
New
Mar 8
First Quarter
Mar 16
Full

Hourly Weather History & Observations

Time (GMT) Temp. Windchill Dew Point Humidity Pressure Visibility Wind Dir Wind Speed Gust Speed Precip Events Conditions
12:00 AM 45 °F - 43 °F 92%  in - SSE 12.7 mph - -  
1:00 AM 44 °F - 42 °F 91%  in - SSE 10.4 mph - -  
2:00 AM 44 °F - 42 °F 92%  in - SSE 11.5 mph - -  
3:00 AM 45 °F - 42 °F 87%  in - South 10.4 mph - -  
4:00 AM 44 °F - 42 °F 89%  in - SSE 9.2 mph - -  
5:00 AM 44 °F - 42 °F 91%  in - South 9.2 mph - -  
6:00 AM 45 °F - 42 °F 86%  in - South 11.5 mph - -  
6:20 AM 44.6 °F 38.8 °F 42.8 °F 93% 29.68 in 6.2 mi South 11.5 mph - N/A   Mostly Cloudy
6:50 AM 44.6 °F 39.2 °F 42.8 °F 93% 29.68 in 6.2 mi SSE 10.4 mph - N/A Rain Light Rain
7:00 AM 44 °F - 42 °F 89%  in - South 10.4 mph - -  
7:20 AM 44.6 °F 38.8 °F 42.8 °F 93% 29.68 in 6.2 mi South 11.5 mph - N/A   Mostly Cloudy
7:50 AM 44.6 °F 39.2 °F 42.8 °F 93% 29.68 in 6.2 mi SSE 10.4 mph - N/A   Mostly Cloudy
8:00 AM 44 °F - 41 °F 86%  in - South 9.2 mph - -  
8:20 AM 44.6 °F 39.7 °F 42.8 °F 93% 29.68 in 6.2 mi SSE 9.2 mph - N/A   Mostly Cloudy
9:00 AM 45 °F - 43 °F 88%  in - South 10.4 mph - -  
9:20 AM 46.4 °F 41.1 °F 42.8 °F 87% 29.68 in 6.2 mi SSE 11.5 mph - N/A   Mostly Cloudy
9:50 AM 46.4 °F 41.5 °F 42.8 °F 87% 29.68 in 6.2 mi South 10.4 mph - N/A   Scattered Clouds
10:00 AM 45 °F - 42 °F 87%  in - South 10.4 mph - -  
10:20 AM 48.2 °F - 44.6 °F 87% 29.68 in 6.2 mi South 10.4 mph - N/A   Partly Cloudy
10:50 AM 46.4 °F 41.1 °F 44.6 °F 93% 29.71 in 6.2 mi South 11.5 mph - N/A   Scattered Clouds
11:00 AM 47 °F - 44 °F 83%  in - SSW 11.5 mph - -  
11:20 AM 46.4 °F 41.9 °F 44.6 °F 93% 29.71 in 6.2 mi SSW 9.2 mph - N/A   Scattered Clouds
11:50 AM 46.4 °F 41.9 °F 44.6 °F 93% 29.71 in 6.2 mi SSW 9.2 mph - N/A   Scattered Clouds
12:00 PM 46 °F - 43 °F 87%  in - SW 10.4 mph - -  
12:20 PM 46.4 °F 41.5 °F 44.6 °F 93% 29.71 in 6.2 mi SSW 10.4 mph - N/A   Scattered Clouds
12:50 PM 48.2 °F - 44.6 °F 87% 29.71 in 6.2 mi SSW 10.4 mph - N/A   Scattered Clouds
1:00 PM 48 °F - 44 °F 81%  in - SW 11.5 mph - -  
1:50 PM 48.2 °F - 44.6 °F 87% 29.71 in 6.2 mi SW 8.1 mph - N/A   Mostly Cloudy
2:00 PM 47 °F - 44 °F 83%  in - SW 9.2 mph - -  
2:20 PM 48.2 °F - 44.6 °F 87% 29.71 in 6.2 mi SW 9.2 mph - N/A   Mostly Cloudy
2:50 PM 48.2 °F - 44.6 °F 87% 29.71 in 6.2 mi SW 8.1 mph - N/A   Partly Cloudy
3:00 PM 47 °F - 45 °F 89%  in - WSW 9.2 mph - -  
3:20 PM 46.4 °F 42.9 °F 44.6 °F 93% 29.71 in 6.2 mi SW 6.9 mph - N/A   Partly Cloudy
3:50 PM 46.4 °F 42.4 °F 44.6 °F 93% 29.71 in 6.2 mi WSW 8.1 mph - N/A   Mostly Cloudy
4:00 PM 46 °F - 43 °F 85%  in - WSW 10.4 mph - -  
4:20 PM 46.4 °F 41.9 °F 42.8 °F 87% 29.68 in 6.2 mi SW 9.2 mph - N/A   Mostly Cloudy
4:50 PM 46.4 °F 42.4 °F 42.8 °F 87% 29.71 in 6.2 mi SW 8.1 mph - N/A   Mostly Cloudy
5:00 PM 46 °F - 41 °F 78%  in - WSW 9.2 mph - -  
5:20 PM 44.6 °F 40.7 °F 42.8 °F 93% 29.71 in 6.2 mi SSW 6.9 mph - N/A   Scattered Clouds
5:50 PM 44.6 °F 40.7 °F 42.8 °F 93% 29.71 in 6.2 mi SSW 6.9 mph - N/A   Mostly Cloudy
6:00 PM 45 °F - 42 °F 85%  in - SW 8.1 mph - -  
6:20 PM 44.6 °F 40.7 °F 42.8 °F 93% 29.71 in 6.2 mi SW 6.9 mph - N/A   Mostly Cloudy
6:50 PM 44.6 °F 40.7 °F 42.8 °F 93% 29.71 in 6.2 mi SSW 6.9 mph - N/A   Mostly Cloudy
7:00 PM 44 °F - 42 °F 89%  in - SW 8.1 mph - -  
7:20 PM 42.8 °F 38.6 °F 41.0 °F 93% 29.71 in 6.2 mi SW 6.9 mph - N/A   Mostly Cloudy
7:50 PM 42.8 °F 40.1 °F 41.0 °F 93% 29.71 in 6.2 mi SSW 4.6 mph - N/A   Mostly Cloudy
8:00 PM 43 °F - 42 °F 92%  in - SW 5.8 mph - -  
8:20 PM 44.6 °F 39.7 °F 42.8 °F 93% 29.71 in 6.2 mi SW 9.2 mph - N/A   Mostly Cloudy
8:50 PM 44.6 °F 39.7 °F 42.8 °F 93% 29.71 in 6.2 mi SW 9.2 mph - N/A   Mostly Cloudy
9:00 PM 44 °F - 43 °F 93%  in - WSW 11.5 mph - -  
10:00 PM 45 °F - 43 °F 89%  in - WSW 11.5 mph - -  
11:00 PM 45 °F - 44 °F 92%  in - WSW 12.7 mph - -